مختلط مع زخات المطر
غائم مع سقوط امطار خفيفة
متلبد بالغيوم
غائم مع سقوط امطار خفيفة
غائم مع سقوط امطار خفيفة
غائم مع سقوط امطار خفيفة
غائم مع سقوط امطار خفيفة
(°C)
(°C)
جنوب جنوب غربي
جنوب جنوب غربي
جنوب جنوب غربي
جنوب جنوب غربي
جنوب جنوب غربي
جنوب غربي
جنوب جنوب غربي
(km/h)
15-26
19-29
20-33
23-36
26-32
28-36
29-41
(ميليمتر)
0.2
0.3
0
0.1
0.4
0.6
0.4
(%)
65
65
4
51
75
91
92

مستوى ارتفاع الشمس

/ -40.3°
sun-icon
UV 1
06:59
17:33
القمر المحدب (157°)
15:07
06:44

متر ل50.1°شمال 14.27°شرق (LKPR)

الوقت الشروط درجة الحرارة/
نقطة الندى
رياح مجال رؤية حالة الطقس غيوم الضغط تغيير خام
VFR 7°C / 0°C 150º 8kt 9700m - Clouds and Visibility OK 1009 No Significant change LKPR 220100Z 15008KT CAVOK 07/00 Q1009 NOSIG
VFR 7°C / 0°C 150º 7kt 9700m - Clouds and Visibility OK 1009 No Significant change LKPR 220030Z 15007KT CAVOK 07/00 Q1009 NOSIG
VFR 7°C / 0°C 160º 6kt 9700m - Few Clouds 3000ft 1010 No Significant change LKPR 220000Z 16006KT 9999 FEW030 07/00 Q1010 NOSIG
VFR 7°C / 0°C 160º 6kt 9700m - Few Clouds 3000ft 1010 No Significant change LKPR 212330Z 16006KT 9999 FEW030 07/00 Q1010 NOSIG
VFR 7°C / 0°C 180º 9kt 9700m - Clouds and Visibility OK 1011 No Significant change LKPR 212300Z 18009KT CAVOK 07/M00 Q1011 NOSIG
VFR 7°C / 0°C 190º 10kt 9700m - Clouds and Visibility OK 1011 No Significant change LKPR 212230Z 19010KT CAVOK 07/00 Q1011 NOSIG
VFR 7°C / 0°C 170º 7kt 9700m - Clouds and Visibility OK 1011 No Significant change LKPR 212200Z 17007KT CAVOK 07/00 Q1011 NOSIG
VFR 7°C / 0°C 170º 6kt 9700m - Clouds and Visibility OK 1012 No Significant change LKPR 212130Z 17006KT CAVOK 07/00 Q1012 NOSIG
VFR 7°C / 0°C 160º 6kt 9700m - Clouds and Visibility OK 1012 No Significant change LKPR 212100Z 16006KT CAVOK 07/M00 Q1012 NOSIG
VFR 7°C / 1°C 180º 7kt 9700m - Clouds and Visibility OK 1012 No Significant change LKPR 212030Z 18007KT CAVOK 07/01 Q1012 NOSIG
VFR 7°C / 1°C 190º 7kt 9700m - Clouds and Visibility OK 1013 No Significant change LKPR 212000Z 19007KT CAVOK 07/01 Q1013 NOSIG
VFR 7°C / 1°C 170º 6kt 9700m - Clouds and Visibility OK 1013 No Significant change LKPR 211930Z 17006KT CAVOK 07/01 Q1013 NOSIG
VFR 7°C / 2°C 190º 8kt 9700m - Clouds and Visibility OK 1014 No Significant change LKPR 211900Z 19008KT CAVOK 07/02 Q1014 NOSIG
VFR 6°C / 2°C 180º variable 100º to 200º 6kt 9700m - Clouds and Visibility OK 1014 No Significant change LKPR 211830Z 18006KT 100V200 CAVOK 06/02 Q1014 NOSIG
VFR 7°C / 2°C 180º 6kt 9700m - Clouds and Visibility OK 1014 No Significant change LKPR 211800Z 18006KT CAVOK 07/02 Q1014 NOSIG
VFR 7°C / 3°C 180º 6kt 9700m - Clouds and Visibility OK 1015 No Significant change LKPR 211730Z 18006KT CAVOK 07/03 Q1015 NOSIG
VFR 8°C / 3°C 190º 7kt 9700m - Clouds and Visibility OK 1015 No Significant change LKPR 211700Z 19007KT CAVOK 08/03 Q1015 NOSIG
VFR 9°C / 3°C 210º 8kt 9700m - Clouds and Visibility OK 1015 No Significant change LKPR 211630Z 21008KT CAVOK 09/03 Q1015 NOSIG
VFR 10°C / 3°C 230º 12kt 9700m - Clouds and Visibility OK 1016 No Significant change LKPR 211600Z 23012KT CAVOK 10/03 Q1016 NOSIG
VFR 10°C / 4°C 220º 13kt 9700m - Clouds and Visibility OK 1016 No Significant change LKPR 211530Z 22013KT CAVOK 10/04 Q1016 NOSIG
VFR 10°C / 4°C 210º 12kt 9700m - Clouds and Visibility OK 1016 No Significant change LKPR 211500Z 21012KT CAVOK 10/04 Q1016 NOSIG
VFR 10°C / 4°C 220º variable 140º to 240º 12kt 9700m - Few Clouds 3800ft 1016 No Significant change LKPR 211430Z 22012KT 140V240 9999 FEW038 10/04 Q1016 NOSIG
VFR 10°C / 4°C 210º 12kt 9700m - Few Clouds 3500ft 1017 No Significant change LKPR 211400Z 21012KT 9999 FEW035 10/04 Q1017 NOSIG
VFR 11°C / 4°C 230º 12kt 9700m - Few Clouds 3300ft 1017 No Significant change LKPR 211330Z 23012KT 9999 FEW033 11/04 Q1017 NOSIG

VFR

7°C / 0°C

[أكثر]
رياح 150º 8kt
مجال رؤية 9700m
حالة الطقس -
غيوم Clouds and Visibility OK
الضغط 1009
تغيير No Significant change
خام LKPR 220100Z 15008KT CAVOK 07/00 Q1009 NOSIG

VFR

7°C / 0°C

[أكثر]
رياح 150º 7kt
مجال رؤية 9700m
حالة الطقس -
غيوم Clouds and Visibility OK
الضغط 1009
تغيير No Significant change
خام LKPR 220030Z 15007KT CAVOK 07/00 Q1009 NOSIG

VFR

7°C / 0°C

[أكثر]
رياح 160º 6kt
مجال رؤية 9700m
حالة الطقس -
غيوم Few Clouds 3000ft
الضغط 1010
تغيير No Significant change
خام LKPR 220000Z 16006KT 9999 FEW030 07/00 Q1010 NOSIG

VFR

7°C / 0°C

[أكثر]
رياح 160º 6kt
مجال رؤية 9700m
حالة الطقس -
غيوم Few Clouds 3000ft
الضغط 1010
تغيير No Significant change
خام LKPR 212330Z 16006KT 9999 FEW030 07/00 Q1010 NOSIG

VFR

7°C / 0°C

[أكثر]
رياح 180º 9kt
مجال رؤية 9700m
حالة الطقس -
غيوم Clouds and Visibility OK
الضغط 1011
تغيير No Significant change
خام LKPR 212300Z 18009KT CAVOK 07/M00 Q1011 NOSIG

VFR

7°C / 0°C

[أكثر]
رياح 190º 10kt
مجال رؤية 9700m
حالة الطقس -
غيوم Clouds and Visibility OK
الضغط 1011
تغيير No Significant change
خام LKPR 212230Z 19010KT CAVOK 07/00 Q1011 NOSIG

VFR

7°C / 0°C

[أكثر]
رياح 170º 7kt
مجال رؤية 9700m
حالة الطقس -
غيوم Clouds and Visibility OK
الضغط 1011
تغيير No Significant change
خام LKPR 212200Z 17007KT CAVOK 07/00 Q1011 NOSIG

VFR

7°C / 0°C

[أكثر]
رياح 170º 6kt
مجال رؤية 9700m
حالة الطقس -
غيوم Clouds and Visibility OK
الضغط 1012
تغيير No Significant change
خام LKPR 212130Z 17006KT CAVOK 07/00 Q1012 NOSIG

VFR

7°C / 0°C

[أكثر]
رياح 160º 6kt
مجال رؤية 9700m
حالة الطقس -
غيوم Clouds and Visibility OK
الضغط 1012
تغيير No Significant change
خام LKPR 212100Z 16006KT CAVOK 07/M00 Q1012 NOSIG

VFR

7°C / 1°C

[أكثر]
رياح 180º 7kt
مجال رؤية 9700m
حالة الطقس -
غيوم Clouds and Visibility OK
الضغط 1012
تغيير No Significant change
خام LKPR 212030Z 18007KT CAVOK 07/01 Q1012 NOSIG

VFR

7°C / 1°C

[أكثر]
رياح 190º 7kt
مجال رؤية 9700m
حالة الطقس -
غيوم Clouds and Visibility OK
الضغط 1013
تغيير No Significant change
خام LKPR 212000Z 19007KT CAVOK 07/01 Q1013 NOSIG

VFR

7°C / 1°C

[أكثر]
رياح 170º 6kt
مجال رؤية 9700m
حالة الطقس -
غيوم Clouds and Visibility OK
الضغط 1013
تغيير No Significant change
خام LKPR 211930Z 17006KT CAVOK 07/01 Q1013 NOSIG

VFR

7°C / 2°C

[أكثر]
رياح 190º 8kt
مجال رؤية 9700m
حالة الطقس -
غيوم Clouds and Visibility OK
الضغط 1014
تغيير No Significant change
خام LKPR 211900Z 19008KT CAVOK 07/02 Q1014 NOSIG

VFR

6°C / 2°C

[أكثر]
رياح 180º variable 100º to 200º 6kt
مجال رؤية 9700m
حالة الطقس -
غيوم Clouds and Visibility OK
الضغط 1014
تغيير No Significant change
خام LKPR 211830Z 18006KT 100V200 CAVOK 06/02 Q1014 NOSIG

VFR

7°C / 2°C

[أكثر]
رياح 180º 6kt
مجال رؤية 9700m
حالة الطقس -
غيوم Clouds and Visibility OK
الضغط 1014
تغيير No Significant change
خام LKPR 211800Z 18006KT CAVOK 07/02 Q1014 NOSIG

VFR

7°C / 3°C

[أكثر]
رياح 180º 6kt
مجال رؤية 9700m
حالة الطقس -
غيوم Clouds and Visibility OK
الضغط 1015
تغيير No Significant change
خام LKPR 211730Z 18006KT CAVOK 07/03 Q1015 NOSIG

VFR

8°C / 3°C

[أكثر]
رياح 190º 7kt
مجال رؤية 9700m
حالة الطقس -
غيوم Clouds and Visibility OK
الضغط 1015
تغيير No Significant change
خام LKPR 211700Z 19007KT CAVOK 08/03 Q1015 NOSIG

VFR

9°C / 3°C

[أكثر]
رياح 210º 8kt
مجال رؤية 9700m
حالة الطقس -
غيوم Clouds and Visibility OK
الضغط 1015
تغيير No Significant change
خام LKPR 211630Z 21008KT CAVOK 09/03 Q1015 NOSIG

VFR

10°C / 3°C

[أكثر]
رياح 230º 12kt
مجال رؤية 9700m
حالة الطقس -
غيوم Clouds and Visibility OK
الضغط 1016
تغيير No Significant change
خام LKPR 211600Z 23012KT CAVOK 10/03 Q1016 NOSIG

VFR

10°C / 4°C

[أكثر]
رياح 220º 13kt
مجال رؤية 9700m
حالة الطقس -
غيوم Clouds and Visibility OK
الضغط 1016
تغيير No Significant change
خام LKPR 211530Z 22013KT CAVOK 10/04 Q1016 NOSIG

VFR

10°C / 4°C

[أكثر]
رياح 210º 12kt
مجال رؤية 9700m
حالة الطقس -
غيوم Clouds and Visibility OK
الضغط 1016
تغيير No Significant change
خام LKPR 211500Z 21012KT CAVOK 10/04 Q1016 NOSIG

VFR

10°C / 4°C

[أكثر]
رياح 220º variable 140º to 240º 12kt
مجال رؤية 9700m
حالة الطقس -
غيوم Few Clouds 3800ft
الضغط 1016
تغيير No Significant change
خام LKPR 211430Z 22012KT 140V240 9999 FEW038 10/04 Q1016 NOSIG

VFR

10°C / 4°C

[أكثر]
رياح 210º 12kt
مجال رؤية 9700m
حالة الطقس -
غيوم Few Clouds 3500ft
الضغط 1017
تغيير No Significant change
خام LKPR 211400Z 21012KT 9999 FEW035 10/04 Q1017 NOSIG

VFR

11°C / 4°C

[أكثر]
رياح 230º 12kt
مجال رؤية 9700m
حالة الطقس -
غيوم Few Clouds 3300ft
الضغط 1017
تغيير No Significant change
خام LKPR 211330Z 23012KT 9999 FEW033 11/04 Q1017 NOSIG

انقر ل50.1°شمال 14.27°شرق (LKPR)

From till


From till Wind 160º 6kt. Visibility 9700m. Nil Significant Cloud.
Becoming from till
Temporarly from till Wind 210º 20kt. Gust 30kt. Visibility 5000m. Rain Mist . Overcast 900ft.
Becoming from till
Temporarly from till Wind 210º 16kt. Visibility 3000m. Rain Mist . Overcast 500ft.

خام: TAF LKPR 212300Z 2200/2306 16006KT CAVOK BECMG 2203/2205 8000 -RA BKN013 TEMPO 2205/2216 21020G30KT 5000 RA BR OVC009 BECMG 2216/2218 20012KT 9999 BKN017 TEMPO 2221/2303 21016KT 3000 RA BR OVC005

رادار وهطول الأمطار التنبؤ الآني ل50.1°شمال 14.27°شرق

رذاذ
ضوء
معتدل
ثقيل
ثقيل جدا
وابل

مؤشر المكان يشير الى 50.1°شمال 14.27°شرق. تُظهر هذه الرسوم المتحركة رادار هطول الأمطار للنطاق الزمني المحدد ، بالإضافة إلى توقعات ٪ 1 $ dh . تشير الصلبان البرتقالية إلى البرق. البيانات مقدمة من nowcast.de (متوفرة في الولايات المتحدة الأمريكية وأوروبا وأستراليا). رذاذ أو تساقط ثلوج خفيف قد يكون غير مرئي للرادار. كثافة هطول الأمطار لها رموز لونية تتراوح من الفيروز إلى الأحمر.

صور الأقمار الصناعية الملتقطة و الأمطار حالياً ل50.1°شمال 14.27°شرق

المؤشر يدل على موقع 50.1°شمال 14.27°شرق. [أكثر]

تجمع صورة الأقمار الصناعية في الوقت الفعلي بين الضوء المرئي أثناء النهار والأشعة تحت الحمراء أثناء الليل. لا تبدو الصورة مظلمة ليلاً، لأن الأشعة تحت الحمراء يمكنها الكشف عن الاختلافات في درجة الحرارة. لسوء الحظ ، يصعب التمييز بين السحب المنخفضة والضباب ودرجات حرارة الأرض ، وبالتالي يمكن أن تكون الصور غير مرئية تقريبًا أثناء الليل. يتم تحديث صور الأقمار الصناعية Meteosat الخاصة بأوروبا في الوقت الفعلي كل 5 دقائق، بينما يتم تحديث صور GOES-16 / GOES-17 (أمريكا الشمالية والجنوبية) و هيماواري (آسيا) كل 10 دقائق.

يقدر هطول الأمطار من الرادار والأقمار الصناعية. تقديرات هطول الأمطار من الأقمار الصناعية أقل دقة في الليل منها أثناء النهار.

© 2024 meteoblue, NOAA Satellites GOES-16 and EUMETSAT. بيانات البرق مقدمة من nowcast.

العودة الى الأعلى
×
مرحبًا ،
يبدو أنك تستخدم مانع الإعلانات.

يُعد الإعلان أمرًا ضروريًا للحفاظ على موقعنا المجاني بتفاصيل ودقة فريدة.

يُرجى إضافة www.meteoblue.com إلى القائمة البيضاء في أداة منع الإعلانات أو التفكير في شراء أحد منتجاتنا:

لديك اشتراك بالفعل؟
ثم يرجى تسجيل الدخول .